Time,TemperatureF,DewpointF,PressureIn,WindDirection,WindDirectionDegrees,WindSpeedMPH,WindSpeedGustMPH,Humidity,HourlyPrecipIn,Conditions,Clouds,dailyrainin,SoftwareType,DateUTC
2013-01-30 00:00:00,50.9,50.4,29.37,SSW,195,0.0,0.0,98,0.08,,,0.00,VWS V14.00,2013-01-30 06:00:00,
2013-01-30 00:10:00,50.9,50.4,29.37,SSW,195,0.0,0.0,98,0.08,,,0.00,VWS V14.00,2013-01-30 06:10:00,
2013-01-30 00:20:00,49.6,49.1,29.37,SSW,195,0.0,0.0,98,0.04,,RA,0.08,VWS V14.00,2013-01-30 06:20:00,
2013-01-30 00:30:00,49.6,49.1,29.34,SSW,195,0.0,0.0,98,0.04,,RA,0.08,VWS V14.00,2013-01-30 06:30:00,
2013-01-30 00:40:00,49.6,49.1,29.37,NNW,338,8.1,15.2,98,0.04,,RA,0.08,VWS V14.00,2013-01-30 06:40:00,
2013-01-30 00:50:00,49.6,49.1,29.37,NW,315,7.2,16.1,98,0.04,,-RA,0.08,VWS V14.00,2013-01-30 06:50:00,
2013-01-30 01:00:00,49.6,49.1,29.34,NW,318,7.2,16.1,98,0.04,,-RA,0.08,VWS V14.00,2013-01-30 07:00:00,
2013-01-30 01:10:00,49.6,49.1,29.34,WNW,292,8.1,12.5,98,0.04,,RA,0.08,VWS V14.00,2013-01-30 07:10:00,
2013-01-30 01:20:00,49.6,49.1,29.34,NW,322,12.5,17.4,98,0.04,,RA,0.12,VWS V14.00,2013-01-30 07:20:00,
2013-01-30 01:30:00,41.7,41.2,29.37,NW,310,12.5,16.1,98,0.04,,-RA,0.12,VWS V14.00,2013-01-30 07:30:00,
2013-01-30 01:40:00,40.6,40.1,29.37,North,1,12.5,21.9,98,0.04,,-RA,0.12,VWS V14.00,2013-01-30 07:40:00,
2013-01-30 01:50:00,40.1,39.6,29.37,NNW,328,15.2,21.9,98,0.04,,RA,0.16,VWS V14.00,2013-01-30 07:50:00,
2013-01-30 02:00:00,39.9,39.4,29.37,North,356,0.0,16.1,98,0.04,,RA,0.16,VWS V14.00,2013-01-30 08:00:00,
2013-01-30 02:10:00,39.7,39.2,29.37,NW,311,8.1,16.6,98,0.04,,RA,0.16,VWS V14.00,2013-01-30 08:10:00,
2013-01-30 02:20:00,39.4,38.9,29.37,NW,326,7.2,15.2,98,0.04,,RA,0.16,VWS V14.00,2013-01-30 08:20:00,
2013-01-30 02:30:00,39.2,38.7,29.37,NW,321,10.7,15.2,98,0.04,,-RA,0.16,VWS V14.00,2013-01-30 08:30:00,
2013-01-30 02:40:00,39.2,38.7,29.37,NW,315,5.4,11.6,98,0.08,,-RA,0.20,VWS V14.00,2013-01-30 08:40:00,
2013-01-30 02:50:00,39.2,38.7,29.37,NNW,330,6.3,10.7,98,0.08,,RA,0.20,VWS V14.00,2013-01-30 08:50:00,
2013-01-30 03:00:00,39.2,38.7,29.34,NW,318,8.1,12.5,98,0.08,,RA,0.20,VWS V14.00,2013-01-30 09:00:00,
2013-01-30 03:10:00,39.0,38.5,29.34,NW,321,8.1,17.4,98,0.08,,RA,0.20,VWS V14.00,2013-01-30 09:10:00,
2013-01-30 03:20:00,38.8,38.3,29.34,NW,306,8.1,16.1,98,0.08,,RA,0.20,VWS V14.00,2013-01-30 09:20:00,
2013-01-30 03:30:00,38.7,38.2,29.34,WNW,299,5.4,10.7,98,0.08,,,0.20,VWS V14.00,2013-01-30 09:30:00,
2013-01-30 03:40:00,38.7,38.2,29.40,NW,317,10.7,10.7,98,0.08,,,0.20,VWS V14.00,2013-01-30 09:40:00,
2013-01-30 03:50:00,38.5,38.0,29.40,WNW,295,8.1,10.7,98,0.08,,,0.20,VWS V14.00,2013-01-30 09:50:00,
2013-01-30 04:00:00,38.5,38.0,29.40,NW,319,9.8,15.2,98,0.04,,,0.24,VWS V14.00,2013-01-30 10:00:00,
2013-01-30 04:10:00,38.5,38.0,29.40,NNW,335,9.8,11.6,98,0.04,,RA,0.24,VWS V14.00,2013-01-30 10:10:00,
2013-01-30 04:20:00,38.5,38.0,29.40,North,357,0.0,10.7,98,0.04,,RA,0.24,VWS V14.00,2013-01-30 10:20:00,
2013-01-30 04:30:00,38.5,38.0,29.34,NE,34,5.4,9.8,98,0.04,,RA,0.24,VWS V14.00,2013-01-30 10:30:00,
2013-01-30 04:40:00,38.5,38.0,29.28,NE,38,5.4,12.5,98,0.04,,RA,0.24,VWS V14.00,2013-01-30 10:40:00,
2013-01-30 04:50:00,38.5,38.0,29.28,ENE,63,5.4,12.5,98,0.04,,RA,0.24,VWS V14.00,2013-01-30 10:50:00,
2013-01-30 05:00:00,38.7,38.2,29.31,NNE,14,6.3,9.8,98,0.04,,OVC003,0.28,VWS V14.00,2013-01-30 11:00:00,
2013-01-30 05:10:00,38.8,38.3,29.31,NNE,32,7.2,9.8,98,0.04,,OVC003,0.28,VWS V14.00,2013-01-30 11:10:00,
2013-01-30 05:20:00,39.0,38.5,29.31,NE,37,9.8,9.8,98,0.04,,OVC003,0.28,VWS V14.00,2013-01-30 11:20:00,
2013-01-30 05:30:00,39.2,38.7,29.31,NE,54,9.8,15.2,98,0.04,,OVC003,0.28,VWS V14.00,2013-01-30 11:30:00,
2013-01-30 05:40:00,39.0,38.5,29.31,NE,35,10.7,15.2,98,0.04,,,0.28,VWS V14.00,2013-01-30 11:40:00,
2013-01-30 05:50:00,38.8,38.3,29.31,NE,51,4.5,11.6,98,0.04,,OVC005,0.28,VWS V14.00,2013-01-30 11:50:00,
2013-01-30 06:00:00,38.8,38.3,29.31,NE,48,0.0,10.7,98,0.04,,OVC005,0.28,VWS V14.00,2013-01-30 12:00:00,
2013-01-30 06:10:00,38.8,38.3,29.31,NNE,24,0.0,11.6,98,0.04,,OVC016,0.28,VWS V14.00,2013-01-30 12:10:00,
2013-01-30 06:20:00,38.7,38.2,29.31,ENE,58,8.1,11.6,98,0.04,,OVC016,0.28,VWS V14.00,2013-01-30 12:20:00,
2013-01-30 06:30:00,38.7,38.2,29.28,NNE,23,0.0,10.7,98,0.04,,OVC016,0.28,VWS V14.00,2013-01-30 12:30:00,
2013-01-30 06:40:00,38.5,38.0,29.31,ENE,57,4.5,10.7,98,0.04,,OVC007,0.28,VWS V14.00,2013-01-30 12:40:00,
2013-01-30 06:50:00,38.1,37.6,29.31,NE,39,5.4,10.7,98,0.04,,-RA,0.28,VWS V14.00,2013-01-30 12:50:00,
2013-01-30 07:00:00,37.9,37.4,29.31,NE,36,0.0,8.1,98,0.00,,-RA,0.28,VWS V14.00,2013-01-30 13:00:00,
2013-01-30 07:10:00,37.9,37.4,29.31,NNE,30,8.9,10.7,98,0.00,,-RA,0.28,VWS V14.00,2013-01-30 13:10:00,
2013-01-30 07:20:00,37.6,37.1,29.31,East,86,8.1,11.6,98,0.00,,-RA,0.28,VWS V14.00,2013-01-30 13:20:00,
2013-01-30 07:30:00,37.4,36.9,29.31,NE,56,6.3,10.7,98,0.00,,-RA,0.28,VWS V14.00,2013-01-30 13:30:00,
2013-01-30 07:40:00,37.4,36.9,29.31,NE,37,6.3,12.5,98,0.00,,-RA,0.28,VWS V14.00,2013-01-30 13:40:00,
2013-01-30 07:50:00,37.2,36.7,29.31,East,91,8.1,12.5,98,0.00,,,0.28,VWS V14.00,2013-01-30 13:50:00,
2013-01-30 08:00:00,37.0,36.5,29.28,NE,53,10.7,15.2,98,0.00,,,0.28,VWS V14.00,2013-01-30 14:00:00,
2013-01-30 08:10:00,37.0,36.5,29.28,East,100,7.2,16.1,98,0.00,,RA,0.28,VWS V14.00,2013-01-30 14:10:00,
2013-01-30 08:20:00,36.9,36.3,29.28,NE,54,9.8,11.6,98,0.00,,RA,0.28,VWS V14.00,2013-01-30 14:20:00,
2013-01-30 08:30:00,36.9,36.3,29.28,NE,36,7.2,13.4,98,0.00,,RA,0.28,VWS V14.00,2013-01-30 14:30:00,
2013-01-30 08:40:00,36.9,36.3,29.26,East,88,10.7,16.1,98,0.00,,RA,0.31,VWS V14.00,2013-01-30 14:40:00,
2013-01-30 08:50:00,36.9,36.3,29.26,East,94,10.7,17.4,98,0.00,,,0.31,VWS V14.00,2013-01-30 14:50:00,
2013-01-30 09:00:00,36.9,36.3,29.26,ENE,62,12.5,20.1,98,0.00,,,0.31,VWS V14.00,2013-01-30 15:00:00,
2013-01-30 09:10:00,36.9,36.3,29.26,East,80,16.6,18.3,98,0.00,,RA,0.31,VWS V14.00,2013-01-30 15:10:00,
2013-01-30 09:20:00,37.0,36.5,29.26,ENE,78,11.6,20.1,98,0.08,,RA,0.35,VWS V14.00,2013-01-30 15:20:00,
2013-01-30 09:30:00,37.0,36.5,29.26,East,88,10.7,21.9,98,0.08,,RA,0.35,VWS V14.00,2013-01-30 15:30:00,
2013-01-30 09:40:00,37.0,36.5,29.23,NE,55,15.2,23.7,98,0.08,,-RA,0.35,VWS V14.00,2013-01-30 15:40:00,
2013-01-30 09:50:00,37.0,36.5,29.23,ENE,74,20.1,20.1,98,0.08,,-RA,0.35,VWS V14.00,2013-01-30 15:50:00,
2013-01-30 10:00:00,37.4,36.9,29.23,SSE,147,7.2,20.1,98,0.08,,-RA,0.39,VWS V14.00,2013-01-30 16:00:00,
2013-01-30 10:10:00,37.9,37.4,29.23,SE,142,7.2,10.7,98,0.08,,-RA,0.39,VWS V14.00,2013-01-30 16:10:00,
2013-01-30 10:20:00,38.1,37.6,29.23,East,94,0.0,10.7,98,0.08,,-RA,0.39,VWS V14.00,2013-01-30 16:20:00,
2013-01-30 10:30:00,38.5,38.0,29.23,SE,139,0.0,8.1,98,0.08,,-RA,0.39,VWS V14.00,2013-01-30 16:30:00,
2013-01-30 10:40:00,38.8,38.3,29.23,SSE,154,0.0,8.1,98,0.08,,-RA,0.39,VWS V14.00,2013-01-30 16:40:00,
2013-01-30 10:50:00,39.4,38.9,29.23,SSW,196,4.5,7.2,98,0.08,, +RA,0.39,VWS V14.00,2013-01-30 16:50:00,
2013-01-30 11:00:00,39.9,39.4,29.23,South,178,0.0,7.2,98,0.08,,,0.39,VWS V14.00,2013-01-30 17:00:00,
2013-01-30 11:10:00,40.6,40.1,29.23,South,189,6.3,10.7,98,0.08,,,0.39,VWS V14.00,2013-01-30 17:10:00,
2013-01-30 11:20:00,41.2,40.7,29.23,WSW,251,8.1,12.5,98,0.08,,,0.39,VWS V14.00,2013-01-30 17:20:00,
2013-01-30 11:30:00,41.2,40.7,29.20,WSW,252,6.3,12.5,98,0.08,,,0.39,VWS V14.00,2013-01-30 17:30:00,
2013-01-30 11:40:00,41.7,41.2,29.20,West,263,9.8,13.4,98,0.08,,-RA,0.39,VWS V14.00,2013-01-30 17:40:00,
2013-01-30 11:50:00,39.6,39.0,29.20,NW,323,7.2,12.5,98,0.08,,OVC003,0.39,VWS V14.00,2013-01-30 17:50:00,
2013-01-30 12:00:00,37.4,36.9,29.23,NW,309,7.2,15.2,98,0.08,,,0.39,VWS V14.00,2013-01-30 18:00:00,
2013-01-30 12:10:00,36.7,36.2,29.20,NW,324,17.4,17.4,98,0.00,,,0.39,VWS V14.00,2013-01-30 18:10:00,
2013-01-30 12:20:00,36.3,35.8,29.20,West,270,7.2,20.1,98,0.00,,,0.39,VWS V14.00,2013-01-30 18:20:00,
2013-01-30 12:30:00,36.1,35.6,29.23,NNW,329,8.1,10.7,98,0.00,,,0.39,VWS V14.00,2013-01-30 18:30:00,
2013-01-30 12:40:00,36.1,35.6,29.23,WNW,298,7.2,11.6,98,0.00,,,0.39,VWS V14.00,2013-01-30 18:40:00,
2013-01-30 12:50:00,35.8,35.3,29.23,NW,318,8.1,12.5,98,0.00,,,0.39,VWS V14.00,2013-01-30 18:50:00,
2013-01-30 13:00:00,35.6,35.1,29.23,WNW,284,12.5,16.1,98,0.00,,-RA,0.39,VWS V14.00,2013-01-30 19:00:00,
2013-01-30 13:10:00,35.6,35.1,29.20,NNW,344,8.1,16.6,98,0.00,,-RA,0.39,VWS V14.00,2013-01-30 19:10:00,
2013-01-30 13:20:00,35.6,35.1,29.20,NW,314,9.8,15.2,98,0.00,,-RA,0.39,VWS V14.00,2013-01-30 19:20:00,
2013-01-30 13:30:00,35.1,34.5,29.23,West,272,11.6,21.0,98,0.00,,-RA,0.39,VWS V14.00,2013-01-30 19:30:00,
2013-01-30 13:40:00,34.9,34.4,29.23,WNW,295,10.7,20.1,98,0.00,,OVC011,0.39,VWS V14.00,2013-01-30 19:40:00,
2013-01-30 13:50:00,34.9,34.4,29.23,North,351,21.9,21.9,98,0.00,,,0.39,VWS V14.00,2013-01-30 19:50:00,
2013-01-30 14:00:00,34.5,34.0,29.23,NW,325,16.1,25.5,98,0.00,,,0.39,VWS V14.00,2013-01-30 20:00:00,
2013-01-30 14:10:00,34.0,33.5,29.26,WNW,296,15.2,30.9,98,0.00,,,0.39,VWS V14.00,2013-01-30 20:10:00,
2013-01-30 14:20:00,33.8,33.3,29.26,NW,313,21.9,24.6,98,0.00,,,0.39,VWS V14.00,2013-01-30 20:20:00,
2013-01-30 14:30:00,33.4,32.9,29.26,WNW,303,17.4,30.0,98,0.00,,,0.39,VWS V14.00,2013-01-30 20:30:00,
2013-01-30 14:40:00,33.3,32.8,29.26,North,356,16.1,21.9,98,0.00,,,0.39,VWS V14.00,2013-01-30 20:40:00,
2013-01-30 14:50:00,33.3,32.5,29.26,NNW,332,12.5,29.1,97,0.00,,OVC018,0.39,VWS V14.00,2013-01-30 20:50:00,
2013-01-30 15:00:00,33.3,32.2,29.28,WNW,287,11.6,21.9,96,0.00,,OVC018,0.39,VWS V14.00,2013-01-30 21:00:00,
2013-01-30 15:10:00,32.9,31.9,29.31,West,281,11.6,19.2,96,0.00,,,0.39,VWS V14.00,2013-01-30 21:10:00,
2013-01-30 15:20:00,32.5,31.5,29.31,NW,321,0.0,15.2,96,0.00,,,0.39,VWS V14.00,2013-01-30 21:20:00,
2013-01-30 15:30:00,32.4,31.4,29.31,WNW,299,0.0,0.0,96,0.00,,OVC017,0.39,VWS V14.00,2013-01-30 21:30:00,
2013-01-30 15:40:00,32.2,31.2,29.31,WNW,302,0.0,0.0,96,0.00,,OVC017,0.39,VWS V14.00,2013-01-30 21:40:00,
2013-01-30 15:50:00,31.6,30.6,29.31,WNW,302,0.0,0.0,96,0.00,,,0.39,VWS V14.00,2013-01-30 21:50:00,
2013-01-30 16:00:00,31.5,30.5,29.34,WNW,302,0.0,0.0,96,0.00,,,0.39,VWS V14.00,2013-01-30 22:00:00,
2013-01-30 16:10:00,31.1,30.1,29.34,WNW,303,0.0,0.0,96,0.00,,,0.39,VWS V14.00,2013-01-30 22:10:00,
2013-01-30 16:20:00,30.6,29.6,29.34,WNW,302,0.0,0.0,96,0.00,,,0.39,VWS V14.00,2013-01-30 22:20:00,
2013-01-30 16:30:00,30.4,29.1,29.37,WNW,302,0.0,0.0,95,0.00,,,0.39,VWS V14.00,2013-01-30 22:30:00,
2013-01-30 16:40:00,30.2,29.2,29.37,WNW,302,0.0,0.0,96,0.00,,,0.39,VWS V14.00,2013-01-30 22:40:00,
2013-01-30 16:50:00,30.2,29.2,29.37,WNW,302,0.0,0.0,96,0.00,,,0.39,VWS V14.00,2013-01-30 22:50:00,
2013-01-30 17:00:00,29.7,28.1,29.37,WNW,302,0.0,0.0,94,0.00,,,0.39,VWS V14.00,2013-01-30 23:00:00,
2013-01-30 17:10:00,29.3,27.5,29.40,WNW,302,0.0,0.0,93,0.00,,,0.39,VWS V14.00,2013-01-30 23:10:00,
2013-01-30 17:20:00,29.3,27.5,29.40,WNW,303,0.0,0.0,93,0.00,,,0.39,VWS V14.00,2013-01-30 23:20:00,
2013-01-30 17:30:00,29.3,27.5,29.40,WNW,303,0.0,0.0,93,0.00,,,0.39,VWS V14.00,2013-01-30 23:30:00,
2013-01-30 17:40:00,29.3,27.5,29.43,WNW,302,0.0,0.0,93,0.00,,,0.39,VWS V14.00,2013-01-30 23:40:00,
2013-01-30 17:50:00,29.3,27.5,29.43,WNW,302,0.0,0.0,93,0.00,,,0.39,VWS V14.00,2013-01-30 23:50:00,
2013-01-30 18:00:00,29.3,27.5,29.43,WNW,302,0.0,0.0,93,0.00,,,0.39,VWS V14.00,2013-01-31 00:00:00,
2013-01-30 18:10:00,29.3,27.5,29.46,WNW,303,0.0,0.0,93,0.00,,,0.39,VWS V14.00,2013-01-31 00:10:00,
2013-01-30 18:20:00,29.3,27.5,29.46,WNW,302,0.0,0.0,93,0.00,,,0.39,VWS V14.00,2013-01-31 00:20:00,
2013-01-30 18:30:00,29.3,27.5,29.46,WNW,302,0.0,0.0,93,0.00,,,0.39,VWS V14.00,2013-01-31 00:30:00,
2013-01-30 18:40:00,29.3,27.5,29.46,WNW,302,0.0,0.0,93,0.00,,,0.39,VWS V14.00,2013-01-31 00:40:00,
2013-01-30 18:50:00,29.3,27.5,29.46,WNW,303,0.0,0.0,93,0.00,,,0.39,VWS V14.00,2013-01-31 00:50:00,
2013-01-30 19:00:00,29.3,27.5,29.49,WNW,302,0.0,0.0,93,0.00,,,0.39,VWS V14.00,2013-01-31 01:00:00,
2013-01-30 19:10:00,29.3,27.5,29.49,WNW,303,0.0,0.0,93,0.00,,OVC047,0.39,VWS V14.00,2013-01-31 01:10:00,
2013-01-30 19:20:00,29.3,27.5,29.49,WNW,302,0.0,0.0,93,0.00,,OVC047,0.39,VWS V14.00,2013-01-31 01:20:00,
2013-01-30 19:30:00,25.2,20.7,29.49,WNW,302,0.0,0.0,83,0.00,,OVC047,0.39,VWS V14.00,2013-01-31 01:30:00,
2013-01-30 19:40:00,25.0,20.8,29.52,WNW,302,0.0,0.0,84,0.00,,OVC017,0.39,VWS V14.00,2013-01-31 01:40:00,
2013-01-30 19:50:00,24.4,20.0,29.52,WNW,302,0.0,0.0,83,0.00,,OVC046,0.39,VWS V14.00,2013-01-31 01:50:00,
2013-01-30 20:00:00,24.3,20.7,29.52,WNW,302,0.0,0.0,86,0.00,,,0.39,VWS V14.00,2013-01-31 02:00:00,
2013-01-30 20:10:00,24.1,20.8,29.52,WNW,302,0.0,0.0,87,0.00,,,0.39,VWS V14.00,2013-01-31 02:10:00,
2013-01-30 20:20:00,23.7,20.4,29.52,WNW,303,0.0,0.0,87,0.00,,,0.39,VWS V14.00,2013-01-31 02:20:00,
2013-01-30 20:30:00,23.7,20.4,29.52,WNW,302,0.0,0.0,87,0.00,,,0.39,VWS V14.00,2013-01-31 02:30:00,
2013-01-30 20:40:00,23.7,20.4,29.52,WNW,303,0.0,0.0,87,0.00,,,0.39,VWS V14.00,2013-01-31 02:40:00,
2013-01-30 20:50:00,23.7,20.4,29.52,WNW,302,0.0,0.0,87,0.00,,,0.39,VWS V14.00,2013-01-31 02:50:00,
2013-01-30 21:00:00,23.7,20.4,29.55,WNW,302,0.0,0.0,87,0.00,,,0.39,VWS V14.00,2013-01-31 03:00:00,
2013-01-30 21:10:00,23.7,20.4,29.55,WNW,302,0.0,0.0,87,0.00,,,0.39,VWS V14.00,2013-01-31 03:10:00,
2013-01-30 21:20:00,23.7,20.4,29.55,WNW,303,0.0,0.0,87,0.00,,,0.39,VWS V14.00,2013-01-31 03:20:00,
2013-01-30 21:30:00,23.7,20.4,29.58,WNW,302,0.0,0.0,87,0.00,,,0.39,VWS V14.00,2013-01-31 03:30:00,
2013-01-30 21:40:00,23.7,20.4,29.58,WNW,302,0.0,0.0,87,0.00,,,0.39,VWS V14.00,2013-01-31 03:40:00,
2013-01-30 21:50:00,23.7,20.4,29.58,WNW,302,0.0,0.0,87,0.00,,,0.39,VWS V14.00,2013-01-31 03:50:00,
2013-01-30 22:00:00,23.7,20.4,29.58,WNW,302,0.0,0.0,87,0.00,,,0.39,VWS V14.00,2013-01-31 04:00:00,
2013-01-30 22:10:00,21.6,15.2,29.58,WNW,303,0.0,0.0,76,0.00,,,0.39,VWS V14.00,2013-01-31 04:10:00,
2013-01-30 22:20:00,21.2,15.7,29.58,WNW,302,0.0,0.0,79,0.00,,,0.39,VWS V14.00,2013-01-31 04:20:00,
2013-01-30 22:30:00,21.2,15.7,29.61,WNW,303,0.0,0.0,79,0.00,,,0.39,VWS V14.00,2013-01-31 04:30:00,
2013-01-30 22:40:00,21.2,15.7,29.61,WNW,303,0.0,0.0,79,0.00,,,0.39,VWS V14.00,2013-01-31 04:40:00,
2013-01-30 22:50:00,21.2,15.7,29.61,WNW,302,0.0,0.0,79,0.00,,,0.39,VWS V14.00,2013-01-31 04:50:00,
2013-01-30 23:00:00,21.2,15.7,29.61,WNW,302,0.0,0.0,79,0.00,,,0.39,VWS V14.00,2013-01-31 05:00:00,
2013-01-30 23:10:00,21.2,15.7,29.61,WNW,302,0.0,0.0,79,0.00,,OVC050,0.39,VWS V14.00,2013-01-31 05:10:00,
2013-01-30 23:20:00,21.2,15.7,29.61,WNW,302,0.0,0.0,79,0.00,,OVC050,0.39,VWS V14.00,2013-01-31 05:20:00,
2013-01-30 23:30:00,21.2,15.7,29.64,WNW,302,0.0,0.0,79,0.00,,OVC050,0.39,VWS V14.00,2013-01-31 05:30:00,
2013-01-30 23:40:00,21.2,15.7,29.64,WNW,302,0.0,0.0,79,0.00,,OVC048,0.39,VWS V14.00,2013-01-31 05:40:00,
2013-01-30 23:50:00,21.2,15.7,29.64,WNW,302,0.0,0.0,79,0.00,,OVC048,0.39,VWS V14.00,2013-01-31 05:50:00,